Date String (YYYY-MM-DD hh:mm:ss) UTC,Instrument flags,Ambient pressure (hPa),Sample flow (lpm),Bypass flow (lpm),Sample temperature (°C),Ambient temperature (°C),ASC tube jacket temperature (°C),LED temperature (°C),Box temperature (°C),Sample RH (%),Span deviation,Mass concentration (μg/m³),Mass concentration (μg/m³),Mass concentration (μg/m³)
DateTimeUTC,F1_M11,P_M11,Q1_M11,Q2_M11,T1_M11,T2_M11,T3_M11,T4_M11,T5_M11,U1_M11,ZSPAN_M11,X0_M11,X2_M11,X1_M11
2021-11-25 14:00:00,,0834.8,5.00,0.00,22.4,21.8,00.0,31.3,24.1,11.8,0000.0,0007.80,0004.93,0004.56
2021-11-25 14:01:00,,0834.8,5.00,0.00,22.3,21.7,00.0,31.3,24.1,11.9,0000.0,0007.76,0004.90,0004.55
2021-11-25 14:02:00,,0834.7,4.99,0.00,22.3,21.7,00.0,31.3,24.1,11.9,0000.0,0008.39,0004.91,0004.55
2021-11-25 14:03:00,,0834.7,5.02,0.00,22.3,21.6,00.0,31.3,24.0,12.0,0000.0,0008.66,0004.89,0004.51
2021-11-25 14:04:00,,0834.7,4.99,0.00,22.3,21.6,00.0,31.3,24.0,12.0,0000.0,0008.78,0004.87,0004.49
2021-11-25 14:05:00,,0834.7,5.00,0.00,22.3,21.6,00.0,31.3,24.0,12.1,0000.0,0008.61,0004.84,0004.48
2021-11-25 14:06:00,,0834.8,5.00,0.00,22.3,21.6,00.0,31.3,24.0,12.1,0000.0,0008.63,0004.84,0004.46
2021-11-25 14:07:00,,0834.8,4.99,0.00,22.2,21.5,00.0,31.2,23.9,12.2,0000.0,0008.59,0004.82,0004.44
2021-11-25 14:08:00,,0834.8,5.01,0.00,22.2,21.5,00.0,31.2,23.9,12.2,0000.0,0008.62,0004.82,0004.44
2021-11-25 14:09:00,,0834.8,5.00,0.00,22.2,21.8,00.0,31.2,24.0,12.3,0000.0,0008.66,0004.82,0004.43
2021-11-25 14:10:00,,0834.8,4.99,0.00,22.3,22.6,00.0,31.3,24.2,12.3,0000.0,0008.42,0004.80,0004.42
2021-11-25 14:11:00,,0834.8,5.02,0.00,22.4,23.2,00.0,31.3,24.4,12.2,0000.0,0008.42,0004.79,0004.42
2021-11-25 14:12:00,,0834.8,5.00,0.00,22.5,23.2,00.0,31.4,24.5,12.2,0000.0,0008.37,0004.77,0004.39
2021-11-25 14:13:00,,0834.9,4.99,0.00,22.6,22.9,00.0,31.4,24.5,12.2,0000.0,0007.76,0004.74,0004.37
2021-11-25 14:14:00,,0834.9,5.00,0.00,22.6,22.7,00.0,31.4,24.4,12.2,0000.0,0007.38,0004.73,0004.37
2021-11-25 14:15:00,,0834.9,5.00,0.00,22.6,22.5,00.0,31.4,24.3,12.2,0000.0,0007.26,0004.74,0004.36
2021-11-25 14:16:00,,0834.8,5.00,0.00,22.5,22.3,00.0,31.4,24.2,12.3,0000.0,0007.34,0004.74,0004.35
2021-11-25 14:17:00,,0834.8,5.00,0.00,22.5,22.2,00.0,31.4,24.2,12.3,0000.0,0007.48,0004.72,0004.34
2021-11-25 14:18:00,,0834.8,4.99,0.00,22.5,22.1,00.0,31.4,24.2,12.4,0000.0,0007.56,0004.70,0004.34
2021-11-25 14:19:00,,0834.8,5.01,0.00,22.5,22.0,00.0,31.4,24.1,12.4,0000.0,0007.54,0004.69,0004.34
2021-11-25 14:20:00,,0834.8,4.99,0.00,22.4,21.9,00.0,31.4,24.1,12.4,0000.0,0007.35,0004.66,0004.33
2021-11-25 14:21:00,,0834.8,5.02,0.00,22.4,21.8,00.0,31.4,24.2,12.5,0000.0,0007.34,0004.66,0004.31
2021-11-25 14:22:00,,0834.8,4.99,0.00,22.4,21.8,00.0,31.4,24.2,12.5,0000.0,0008.12,0004.67,0004.31
2021-11-25 14:23:00,,0834.8,5.00,0.00,22.4,21.7,00.0,31.4,24.2,12.6,0000.0,0008.19,0004.70,0004.31
2021-11-25 14:24:00,,0834.8,5.01,0.00,22.4,21.7,00.0,31.4,24.1,12.6,0000.0,0008.24,0004.70,0004.31
2021-11-25 14:25:00,,0834.8,4.99,0.00,22.4,21.7,00.0,31.4,24.1,12.7,0000.0,0008.42,0004.73,0004.30
2021-11-25 14:26:00,,0834.8,4.99,0.00,22.4,21.7,00.0,31.4,24.1,12.7,0000.0,0008.63,0004.72,0004.30
2021-11-25 14:27:00,,0834.9,5.01,0.00,22.4,21.6,00.0,31.4,24.1,12.7,0000.0,0008.56,0004.71,0004.28
2021-11-25 14:28:00,,0834.9,4.99,0.00,22.3,21.6,00.0,31.4,24.1,12.8,0000.0,0008.43,0004.72,0004.28
2021-11-25 14:29:00,,0834.9,5.00,0.00,22.3,21.6,00.0,31.4,24.1,12.9,0000.0,0008.30,0004.72,0004.28
2021-11-25 14:30:00,,0834.9,4.98,0.00,22.3,21.6,00.0,31.4,24.0,12.9,0000.0,0008.32,0004.71,0004.28
2021-11-25 14:31:00,,0834.9,5.01,0.00,22.3,21.6,00.0,31.3,24.0,13.0,0000.0,0008.70,0004.74,0004.27
2021-11-25 14:32:00,,0834.9,5.01,0.00,22.4,22.0,00.0,31.4,24.1,13.1,0000.0,0008.82,0004.79,0004.29
2021-11-25 14:33:00,,0834.9,4.99,0.00,22.5,23.1,00.0,31.4,24.4,13.0,0000.0,0008.41,0004.79,0004.29
2021-11-25 14:34:00,,0835.0,5.00,0.00,22.6,23.9,00.0,31.4,24.6,13.0,0000.0,0008.25,0004.76,0004.29
2021-11-25 14:35:00,,0834.9,5.00,0.00,22.7,23.7,00.0,31.5,24.7,13.1,0000.0,0008.20,0004.75,0004.31
2021-11-25 14:36:00,,0834.9,5.00,0.00,22.7,23.4,00.0,31.5,24.7,13.2,0000.0,0008.54,0004.76,0004.35
2021-11-25 14:37:00,,0834.9,5.01,0.00,22.7,23.1,00.0,31.5,24.6,13.2,0000.0,0008.64,0004.77,0004.37
2021-11-25 14:38:00,,0834.9,4.99,0.00,22.7,22.9,00.0,31.5,24.6,13.3,0000.0,0009.17,0004.81,0004.42
2021-11-25 14:39:00,,0834.9,5.00,0.00,22.7,22.7,00.0,31.6,24.6,13.2,0000.0,0009.20,0004.83,0004.45
2021-11-25 14:40:00,,0834.9,4.99,0.00,22.7,22.5,00.0,31.6,24.6,13.2,0000.0,0009.18,0004.86,0004.50
2021-11-25 14:41:00,,0834.8,5.02,0.00,22.7,22.4,00.0,31.6,24.5,13.2,0000.0,0009.22,0004.91,0004.54
2021-11-25 14:42:00,,0834.9,5.00,0.00,22.7,22.3,00.0,31.6,24.5,13.0,0000.0,0009.30,0004.92,0004.58
2021-11-25 14:43:00,,0834.8,4.99,0.00,22.7,22.3,00.0,31.6,24.5,12.8,0000.0,0009.44,0004.91,0004.60
2021-11-25 14:44:00,,0834.8,5.01,0.00,22.7,22.2,00.0,31.6,24.4,12.7,0000.0,0009.57,0004.95,0004.64
2021-11-25 14:45:00,,0834.8,5.01,0.00,22.7,22.1,00.0,31.6,24.4,12.6,0000.0,0009.96,0005.00,0004.67
2021-11-25 14:46:00,,0834.8,4.99,0.00,22.7,22.1,00.0,31.6,24.4,12.5,0000.0,0009.97,0005.02,0004.68
2021-11-25 14:47:00,,0834.8,5.00,0.00,22.7,22.1,00.0,31.6,24.4,12.4,0000.0,0009.95,0005.03,0004.66
2021-11-25 14:48:00,,0834.8,5.01,0.00,22.7,22.0,00.0,31.6,24.4,12.3,0000.0,0009.64,0005.02,0004.65
2021-11-25 14:49:00,,0834.8,5.00,0.00,22.7,22.0,00.0,31.6,24.4,12.1,0000.0,0009.08,0004.98,0004.63
2021-11-25 14:50:00,,0834.7,5.01,0.00,22.7,22.0,00.0,31.6,24.3,11.8,0000.0,0009.18,0004.90,0004.58
2021-11-25 14:51:00,,0834.7,4.99,0.00,22.7,22.0,00.0,31.6,24.3,11.6,0000.0,0009.41,0004.84,0004.51
2021-11-25 14:52:00,,0834.7,5.00,0.00,22.7,22.0,00.0,31.6,24.4,11.4,0000.0,0009.40,0004.77,0004.43
2021-11-25 14:53:00,,0834.7,5.01,0.00,22.7,21.9,00.0,31.6,24.4,11.4,0000.0,0008.90,0004.71,0004.38
2021-11-25 14:54:00,,0834.7,4.99,0.00,22.6,21.9,00.0,31.6,24.4,11.5,0000.0,0008.64,0004.67,0004.34
2021-11-25 14:55:00,,0834.7,5.00,0.00,22.6,21.9,00.0,31.6,24.4,11.4,0000.0,0008.28,0004.60,0004.28
2021-11-25 14:56:00,,0834.7,4.99,0.00,22.6,21.9,00.0,31.6,24.3,11.4,0000.0,0007.67,0004.48,0004.21
2021-11-25 14:57:00,,0834.7,5.01,0.00,22.6,21.9,00.0,31.6,24.3,12.0,0000.0,0007.65,0004.43,0004.16
2021-11-25 14:58:00,,0834.7,5.00,0.00,22.6,21.9,00.0,31.6,24.3,12.5,0000.0,0007.30,0004.39,0004.15
2021-11-25 14:59:00,,0834.8,4.99,0.00,22.6,21.9,00.0,31.6,24.4,12.5,0000.0,0007.25,0004.39,0004.14
